This demonstration page uses our WeatherBlox Daily Observations layout. Learn more.

Left ArrowRight Arrow

38.83388, -104.82136

Hourly Observations for August 10, 2022

Temp ( °F °C ) Dew Point ( °F °C ) Humidity (%) Winds ( mph kmh ) Pressure ( in mb ) Visibility ( mi km ) Precip ( " mm )
12:54 am 00:54 Mostly Clear 68 20 57 13.9 68 68 Calm 30.14 1021 10 16 0.00 0.00
1:54 am 01:54 Mostly Clear 68 20 58 14.4 70 70 ESE 3 6 30.12 1020 10 16 0.00 0.00
2:54 am 02:54 Clear 65 18.3 58 14.4 78 78 ENE 9 15 30.13 1020 10 16 0.00 0.00
3:54 am 03:54 Clear 62 16.7 57 13.9 84 84 N 6 9 30.14 1021 10 16 0.00 0.00
4:54 am 04:54 Clear 60 15.6 56 13.3 86 86 NNE 8 13 30.14 1021 10 16 0.00 0.00
5:54 am 05:54 Clear 60 15.6 54 12.2 80 80 N 9 15 30.15 1021 10 16 0.00 0.00
6:54 am 06:54 Sunny 63 17.2 55 12.8 75 75 N 6 9 30.15 1021 10 16 0.00 0.00
7:54 am 07:54 Sunny 72 22.2 57 13.9 59 59 Calm 30.15 1021 10 16 0.00 0.00
8:54 am 08:54 Sunny 76 24.4 57 13.9 52 52 Calm 30.14 1021 10 16 0.00 0.00
9:54 am 09:54 Mostly Sunny 78 25.6 56 13.3 47 47 S 7 11 30.15 1021 10 16 0.00 0.00
10:54 am 10:54 Mostly Sunny 80 26.7 56 13.3 44 44 S 8 13 30.16 1021 10 16 0.00 0.00
11:54 am 11:54 Partly Cloudy 82 27.8 52 11.1 35 35 SSE 7 11 30.16 1021 10 16 0.00 0.00
12:54 pm 12:54 Partly Cloudy 82 27.8 51 10.6 34 34 S 8 13 30.14 1021 10 16 0.00 0.00
1:54 pm 13:54 Partly Cloudy 83 28.3 53 11.7 36 36 SSE 10 17 30.12 1020 10 16 0.00 0.00
2:54 pm 14:54 Partly Cloudy 83 28.3 52 11.1 34 34 S 10 17 30.12 1020 10 16 0.00 0.00
3:54 pm 15:54 Partly Cloudy 84 28.9 52 11.1 33 33 SE 9 15 30.11 1020 10 16 0.00 0.00
4:54 pm 16:54 Mostly Sunny 85 29.4 50 10 30 30 S 14 22 30.10 1019 10 16 0.00 0.00
5:54 pm 17:54 Mostly Sunny 84 28.9 48 8.9 29 29 SE 9 15 30.10 1019 10 16 0.00 0.00
6:54 pm 18:54 Mostly Sunny 82 27.8 49 9.4 32 32 ESE 13 20 30.09 1019 10 16 0.00 0.00
7:54 pm 19:54 Mostly Sunny 77 25 52 11.1 42 42 ESE 12 19 30.10 1019 10 16 0.00 0.00
8:54 pm 20:54 Mostly Clear 74 23.3 52 11.1 46 46 SE 12 19 30.13 1020 10 16 0.00 0.00
9:54 pm 21:54 Mostly Clear 71 21.7 52 11.1 51 51 SE 8 13 30.14 1021 10 16 0.00 0.00
10:54 pm 22:54 Mostly Clear 71 21.7 52 11.1 51 51 SE 7 11 30.16 1021 10 16 0.00 0.00
11:54 pm 23:54 Mostly Clear 69 20.6 53 11.7 57 57 Calm 30.16 1021 10 16 0.00 0.00

Powered by AerisWeather